When you browse on this site, cookies collect data to enhance your experience and personalize the content and advertising you see.
Visit our Privacy Policy to learn more. By continuing to use the site, you agree to this use of cookies and data.
  • In United Kingdom
  • List of Countries
  • For 7 days
  • Water Temperature
  • Weather Map
  • Weather Widgets
  • user-avatar
    Login

    Hourly Weather Maripasoula

    Today, 28 May, Thursday

    Time Temperature Precipitation Wind Pressure Humidity
    00:00 +22°C° 0.5 mm 0 mps 747 mmHg 99%
    01:00 +22°C° 0.5 mm 0 mps 746 mmHg 99%
    02:00 +22°C° 0 mm 0 mps 746 mmHg 99%
    03:00 +22°C° 0.6 mm 0 mps 746 mmHg 99%
    04:00 +22°C° 0.6 mm 0 mps 746 mmHg 99%
    05:00 +22°C° 0.6 mm 0 mps 746 mmHg 99%
    06:00 +23°C° 0.3 mm 0 mps 747 mmHg 97%
    07:00 +26°C° 0.3 mm 1 mps 747 mmHg 95%
    08:00 +27°C° 0.3 mm 1 mps 748 mmHg 93%
    09:00 +28°C° 2.2 mm 1 mps 747 mmHg 93%
    10:00 +28°C° 2.2 mm 1 mps 747 mmHg 93%
    11:00 +29°C° 2.2 mm 1 mps 747 mmHg 94%
    12:00 +29°C° 2.6 mm 1 mps 746 mmHg 94%
    13:00 +29°C° 2.6 mm 1 mps 746 mmHg 94%
    14:00 +29°C° 2.6 mm 1 mps 745 mmHg 94%
    15:00 +28°C° 2.2 mm 2 mps 745 mmHg 95%
    16:00 +27°C° 2.2 mm 2 mps 745 mmHg 96%
    17:00 +26°C° 2.2 mm 2 mps 745 mmHg 97%
    18:00 +26°C° 0.5 mm 2 mps 746 mmHg 98%
    19:00 +25°C° 0.5 mm 1 mps 746 mmHg 98%
    20:00 +25°C° 0.5 mm 1 mps 747 mmHg 98%
    21:00 +25°C° 0.3 mm 1 mps 747 mmHg 99%
    22:00 +25°C° 0.3 mm 1 mps 747 mmHg 99%
    23:00 +25°C° 0.3 mm 1 mps 748 mmHg 99%

    Tomorrow, 29 May, Friday

    Time Temperature Precipitation Wind Pressure Humidity
    00:00 +24°C° 1 mm 1 mps 747 mmHg 99%
    01:00 +24°C° 1 mm 1 mps 746 mmHg 99%
    02:00 +22°C° 1 mm 0 mps 746 mmHg 99%
    03:00 +22°C° 1.2 mm 0 mps 746 mmHg 99%
    04:00 +22°C° 1.2 mm 0 mps 746 mmHg 99%
    05:00 +22°C° 1.2 mm 0 mps 746 mmHg 99%
    06:00 +23°C° 0.3 mm 0 mps 747 mmHg 99%
    07:00 +23°C° 0.3 mm 0 mps 747 mmHg 98%
    08:00 +24°C° 0.3 mm 0 mps 748 mmHg 98%
    09:00 +24°C° 0.8 mm 0 mps 748 mmHg 96%
    10:00 +25°C° 0.8 mm 0 mps 748 mmHg 95%
    11:00 +28°C° 0.8 mm 1 mps 748 mmHg 93%
    12:00 +29°C° 0.3 mm 1 mps 747 mmHg 85%
    13:00 +30°C° 0.3 mm 1 mps 746 mmHg 77%
    14:00 +31°C° 0.3 mm 1 mps 745 mmHg 69%
    15:00 +30°C° 0.5 mm 1 mps 745 mmHg 77%
    16:00 +29°C° 0.5 mm 1 mps 746 mmHg 86%
    17:00 +26°C° 0.5 mm 0 mps 746 mmHg 95%
    18:00 +25°C° 0.1 mm 0 mps 746 mmHg 96%
    19:00 +24°C° 0.1 mm 0 mps 747 mmHg 97%
    20:00 +23°C° 0.1 mm 0 mps 747 mmHg 98%
    21:00 +23°C° 0 mm 0 mps 748 mmHg 98%
    22:00 +23°C° 0 mm 0 mps 748 mmHg 98%
    23:00 +23°C° 0 mm 0 mps 748 mmHg 99%

    Day after tomorrow, 30 May, Saturday

    Time Temperature Precipitation Wind Pressure Humidity
    00:00 +22°C° 0 mm 0 mps 748 mmHg 99%
    01:00 +22°C° 0 mm 0 mps 747 mmHg 99%
    02:00 +22°C° 0 mm 0 mps 747 mmHg 99%
    03:00 +22°C° 0 mm 0 mps 747 mmHg 99%
    04:00 +22°C° 0 mm 0 mps 747 mmHg 99%
    05:00 +22°C° 0 mm 0 mps 747 mmHg 99%
    06:00 +23°C° 0 mm 0 mps 747 mmHg 96%
    07:00 +26°C° 0 mm 1 mps 748 mmHg 93%
    08:00 +27°C° 0 mm 1 mps 748 mmHg 90%
    09:00 +29°C° 0 mm 1 mps 748 mmHg 80%
    10:00 +31°C° 0 mm 1 mps 748 mmHg 70%
    11:00 +32°C° 0 mm 1 mps 747 mmHg 60%
    12:00 +33°C° 0 mm 1 mps 747 mmHg 57%
    13:00 +33°C° 0 mm 1 mps 746 mmHg 54%
    14:00 +34°C° 0 mm 1 mps 745 mmHg 50%
    15:00 +32°C° 0.4 mm 1 mps 745 mmHg 65%
    16:00 +29°C° 0.4 mm 1 mps 745 mmHg 79%
    17:00 +27°C° 0.4 mm 1 mps 745 mmHg 93%
    18:00 +26°C° 0 mm 1 mps 746 mmHg 95%
    19:00 +26°C° 0 mm 1 mps 746 mmHg 96%
    20:00 +23°C° 0 mm 0 mps 747 mmHg 97%
    21:00 +23°C° 0 mm 0 mps 747 mmHg 98%
    22:00 +22°C° 0 mm 0 mps 747 mmHg 98%
    23:00 +22°C° 0 mm 0 mps 748 mmHg 98%

    31 May, Sunday

    Time Temperature Precipitation Wind Pressure Humidity
    00:00 +22°C° 0 mm 0 mps 747 mmHg 99%
    01:00 +22°C° 0 mm 0 mps 747 mmHg 99%
    02:00 +21°C° 0 mm 0 mps 746 mmHg 99%
    03:00 +21°C° 0 mm 0 mps 746 mmHg 99%
    04:00 +21°C° 0 mm 0 mps 746 mmHg 99%
    05:00 +21°C° 0 mm 0 mps 747 mmHg 99%
    06:00 +22°C° 0 mm 0 mps 747 mmHg 96%
    07:00 +24°C° 0 mm 0 mps 748 mmHg 93%
    08:00 +27°C° 0 mm 1 mps 748 mmHg 90%
    09:00 +28°C° 0 mm 1 mps 748 mmHg 81%
    10:00 +30°C° 0 mm 1 mps 748 mmHg 73%
    11:00 +31°C° 0 mm 1 mps 747 mmHg 65%
    12:00 +32°C° 0.1 mm 1 mps 747 mmHg 63%
    13:00 +32°C° 0.1 mm 1 mps 746 mmHg 61%
    14:00 +33°C° 0.1 mm 1 mps 746 mmHg 59%
    15:00 +31°C° 0.7 mm 1 mps 745 mmHg 72%
    16:00 +29°C° 0.7 mm 1 mps 745 mmHg 84%
    17:00 +27°C° 0.7 mm 1 mps 745 mmHg 96%
    18:00 +26°C° 0.2 mm 1 mps 746 mmHg 97%
    19:00 +26°C° 0.2 mm 1 mps 746 mmHg 97%
    20:00 +25°C° 0.2 mm 1 mps 747 mmHg 98%
    21:00 +25°C° 0.2 mm 1 mps 747 mmHg 98%
    22:00 +24°C° 0.2 mm 1 mps 747 mmHg 98%
    23:00 +22°C° 0.2 mm 0 mps 747 mmHg 99%

    1 June, Monday

    Time Temperature Precipitation Wind Pressure Humidity
    00:00 +22°C° 0 mm 0 mps 747 mmHg 99%
    01:00 +22°C° 0 mm 0 mps 747 mmHg 99%
    02:00 +22°C° 0 mm 0 mps 746 mmHg 99%
    03:00 +22°C° 0 mm 0 mps 746 mmHg 99%
    04:00 +22°C° 0 mm 0 mps 746 mmHg 99%
    05:00 +22°C° 0 mm 0 mps 747 mmHg 99%
    06:00 +23°C° 0 mm 0 mps 747 mmHg 97%
    07:00 +26°C° 0 mm 1 mps 748 mmHg 95%
    08:00 +26°C° 0 mm 1 mps 748 mmHg 93%
    09:00 +28°C° 0.4 mm 1 mps 748 mmHg 87%
    10:00 +29°C° 0.4 mm 1 mps 748 mmHg 81%
    11:00 +31°C° 0.4 mm 1 mps 747 mmHg 74%
    12:00 +30°C° 1.3 mm 1 mps 747 mmHg 79%
    13:00 +30°C° 1.3 mm 1 mps 746 mmHg 85%
    14:00 +29°C° 1.3 mm 1 mps 745 mmHg 90%
    15:00 +29°C° 1.7 mm 1 mps 745 mmHg 92%
    16:00 +28°C° 1.7 mm 1 mps 745 mmHg 94%
    17:00 +27°C° 1.7 mm 1 mps 745 mmHg 96%
    18:00 +27°C° 0.6 mm 1 mps 746 mmHg 97%
    19:00 +26°C° 0.6 mm 1 mps 747 mmHg 97%
    20:00 +23°C° 0.6 mm 0 mps 747 mmHg 98%
    21:00 +23°C° 0 mm 0 mps 747 mmHg 98%
    22:00 +23°C° 0 mm 0 mps 747 mmHg 99%
    23:00 +22°C° 0 mm 0 mps 748 mmHg 99%

    2 June, Tuesday

    Time Temperature Precipitation Wind Pressure Humidity
    00:00 +22°C° 0 mm 0 mps 747 mmHg 99%
    01:00 +22°C° 0 mm 0 mps 747 mmHg 99%
    02:00 +22°C° 0 mm 0 mps 746 mmHg 99%
    03:00 +22°C° 0 mm 0 mps 746 mmHg 99%
    04:00 +22°C° 0 mm 0 mps 746 mmHg 99%
    05:00 +22°C° 0 mm 0 mps 746 mmHg 99%
    06:00 +23°C° 0 mm 0 mps 747 mmHg 97%
    07:00 +24°C° 0 mm 0 mps 747 mmHg 95%
    08:00 +25°C° 0 mm 0 mps 748 mmHg 93%
    09:00 +26°C° 0.7 mm 0 mps 748 mmHg 90%
    10:00 +29°C° 0.7 mm 1 mps 747 mmHg 87%
    11:00 +30°C° 0.7 mm 1 mps 747 mmHg 84%
    12:00 +30°C° 1.1 mm 1 mps 746 mmHg 85%
    13:00 +30°C° 1.1 mm 1 mps 746 mmHg 86%
    14:00 +30°C° 1.1 mm 1 mps 745 mmHg 86%
    15:00 +29°C° 1.6 mm 1 mps 745 mmHg 90%
    16:00 +28°C° 1.6 mm 1 mps 745 mmHg 93%
    17:00 +27°C° 1.6 mm 1 mps 745 mmHg 96%
    18:00 +26°C° 0.9 mm 1 mps 745 mmHg 97%
    19:00 +26°C° 0.9 mm 1 mps 746 mmHg 98%
    20:00 +25°C° 0.9 mm 1 mps 747 mmHg 98%
    21:00 +25°C° 0.1 mm 1 mps 747 mmHg 98%
    22:00 +25°C° 0.1 mm 1 mps 747 mmHg 99%
    23:00 +24°C° 0.1 mm 1 mps 747 mmHg 99%
    Show more